www.pogodaiklimat.ru

Погода и климат >> Архив погоды >> Австралия >> Квинсленд >> Бердсвилл


ПОГОДА в Бердсвилле

  • Прогноз погоды в Бердсвилле
  • Монитор погоды в Бердсвилле

АРХИВ ПОГОДЫ в Бердсвилле

Время (UTC), дата Ветер
(напр.,м/с)
 
Видим.   Явления Облачность Т
(С)
Тd
(С)
f
(%)
Тe
(С)
Тes
(С)
Комфортность P
(гПа)
Po
(гПа)
Тmin
(С)
Tmax
(С)
R
(мм)
R24
(мм)
S
(см)
23 17.03 Ю 4 н/о н/о +27.0 +10.7 36 +28 +28 жарко 1012.8 1007.5
00 18.03 Ю 5 н/о н/о +29.7 +9.8 29 +30 +30 жарко 1012.6 1007.3
02 18.03 Ю 4 н/о н/о +34.7 +9.9 22 +34 +34 очень
жарко
1011.8 1006.5 +21.3
03 18.03 Ю 5 н/о н/о +36.4 +5.6 15 +34 +34 очень
жарко
1010.8 1005.5
05 18.03 Ю 6 н/о н/о +37.0 +7.0 16 +35 +35 очень
жарко
1009.0 1003.7
06 18.03 Ю 7 н/о н/о +37.0 +6.1 15 +34 +34 очень
жарко
1008.3 1003.0
08 18.03 Ю 6 н/о н/о +35.6 +9.2 20 +34 +34 очень
жарко
1008.1 1002.8
09 18.03 ЮЗ 4 н/о н/о +32.7 +13.4 31 +34 +34 очень
жарко
1008.4 1003.1
11 18.03 Ю 5 н/о н/о +29.3 +12.7 36 +30 +30 жарко 1010.2 1004.9
12 18.03 Ю 4 н/о н/о +28.9 +11.9 35 +30 +30 жарко 1010.5 1005.2
14 18.03 Ю 3 н/о н/о +26.0 +13.2 45 +28 +28 жарко 1010.1 1004.8 +38.1
15 18.03 Ю 4 н/о н/о +26.3 +10.5 37 +27 +27 жарко 1009.7 1004.4
17 18.03 Ю 3 н/о н/о +24.2 +12.5 48 +26 +26 жарко 1009.3 1004.0
18 18.03 Ю 3 н/о н/о +23.5 +11.5 47 +25 +25 комфорт 1009.3 1004.0
20 18.03 Ю 3 н/о н/о +22.2 +11.0 49 +24 +24 комфорт 1009.9 1004.6
21 18.03 Ю 3 н/о н/о +21.3 +11.1 52 +23 +23 комфорт 1010.4 1005.1
23 18.03 Ю 4 н/о н/о +27.6 +12.0 38 +29 +29 жарко 1011.8 1006.5
00 19.03 ЮВ 5 н/о н/о +31.2 +11.6 30 +32 +32 жарко 1012.0 1006.7
02 19.03 ЮВ 6 н/о н/о +36.8 +7.8 17 +35 +35 очень
жарко
1010.9 1005.6 +21.3
03 19.03 Ю 6 н/о н/о +37.9 +7.7 16 +36 +36 очень
жарко
1009.9 1004.6
05 19.03 Ю 7 н/о н/о +38.2 +8.0 16 +36 +36 очень
жарко
1008.3 1003.0
06 19.03 Ю 7 н/о н/о +37.9 +8.6 17 +36 +36 очень
жарко
1007.9 1002.6
08 19.03 Ю 6 н/о н/о +36.1 +8.8 19 +34 +34 очень
жарко
1007.7 1002.4
09 19.03 ЮЗ 4 н/о н/о +33.1 +12.7 29 +34 +34 очень
жарко
1008.1 1002.8
11 19.03 Ю 4 н/о н/о +29.4 +12.8 36 +31 +31 жарко 1009.7 1004.4
12 19.03 Ю 3 н/о н/о +27.7 +13.6 42 +30 +30 жарко 1010.2 1004.9
14 19.03 Ю 3 н/о н/о +26.0 +12.1 42 +27 +27 жарко 1010.0 1004.7 +39.3
15 19.03 Ю 4 н/о н/о +26.1 +9.5 35 +27 +27 жарко 1009.6 1004.3
17 19.03 Ю 3 н/о н/о +24.2 +11.2 44 +26 +26 жарко 1009.0 1003.7
18 19.03 Ю 3 н/о н/о +23.9 +11.3 45 +25 +25 комфорт 1009.0 1003.7
20 19.03 Ю 3 н/о н/о +22.4 +11.5 50 +25 +25 комфорт 1009.8 1004.5
21 19.03 Ю 3 н/о н/о +22.2 +10.4 47 +24 +24 комфорт 1010.2 1004.9
23 19.03 Ю 4 н/о н/о +27.9 +11.5 36 +29 +29 жарко 1011.3 1006.0
00 20.03 ЮВ 4 н/о н/о +32.6 +8.8 23 +31 +31 жарко 1011.7 1006.4
02 20.03 ЮВ 5 н/о н/о +37.1 +7.1 16 +35 +35 очень
жарко
1010.9 1005.6 +21.4
03 20.03 Ю 7 н/о н/о +38.2 +6.0 14 +36 +36 очень
жарко
1009.8 1004.5
05 20.03 Ю 7 н/о н/о +38.5 +4.1 12 +35 +35 очень
жарко
1007.9 1002.6
06 20.03 Ю 7 н/о н/о +38.9 +4.4 12 +36 +36 очень
жарко
1007.3 1002.0
08 20.03 Ю 7 н/о н/о +37.0 +8.8 18 +35 +35 очень
жарко
1007.4 1002.1
09 20.03 Ю 4 н/о н/о +33.7 +12.7 28 +34 +34 очень
жарко
1007.8 1002.5
11 20.03 Ю 6 н/о н/о +31.3 +12.2 31 +32 +32 жарко 1009.3 1004.0
12 20.03 Ю 5 н/о н/о +29.8 +13.5 37 +31 +31 жарко 1010.0 1004.7
14 20.03 Ю 4 н/о н/о +28.0 +14.3 43 +30 +30 жарко 1009.9 1004.6 +39.9
15 20.03 Ю 3 н/о н/о +26.2 +13.0 44 +28 +28 жарко 1009.5 1004.2
17 20.03 Ю 3 н/о н/о +24.8 +12.4 46 +27 +27 жарко 1008.9 1003.6
18 20.03 ЮВ 3 н/о н/о +23.6 +11.3 46 +25 +25 комфорт 1009.0 1003.7
20 20.03 Ю 2 н/о н/о +22.1 +11.2 50 +24 +24 комфорт 1009.1 1003.8
21 20.03 ЮВ 1 н/о н/о +22.7 +11.4 49 +25 +25 комфорт 1009.6 1004.3
23 20.03 ЮЗ 3 н/о н/о +27.7 +13.6 42 +30 +30 жарко 1010.7 1005.4
00 21.03 ЮВ 2 н/о н/о +31.9 +9.4 25 +31 +31 жарко 1011.3 1006.0
02 21.03 В 2 н/о н/о +35.8 +9.3 20 +34 +34 очень
жарко
1010.4 1005.1 +22.0
03 21.03 Ю 4 н/о н/о +37.5 +5.5 14 +35 +35 очень
жарко
1009.2 1003.9
05 21.03 Ю 5 н/о н/о +39.5 +2.2 10 +36 +36 очень
жарко
1007.4 1002.1
06 21.03 Ю 6 н/о н/о +39.2 +2.0 10 +36 +36 очень
жарко
1006.8 1001.5
08 21.03 Ю 5 н/о н/о +37.8 +8.6 17 +36 +36 очень
жарко
1006.8 1001.5
09 21.03 Ю 5 н/о н/о +34.4 +10.9 24 +34 +34 очень
жарко
1007.2 1001.9
11 21.03 ЮВ 4 н/о н/о +33.1 +9.2 23 +32 +32 жарко 1009.1 1003.8
12 21.03 Ю 3 н/о н/о +31.5 +8.5 24 +30 +30 жарко 1009.4 1004.1
14 21.03 ЮЗ 3 н/о н/о +29.5 +8.0 26 +29 +29 жарко 1009.4 1004.1 +40.7
17 21.03 ЮЗ 4 н/о н/о +25.0 +13.2 48 +27 +27 жарко 1007.8 1002.5
18 21.03 ЮЗ 4 н/о н/о +23.1 +15.4 62 +27 +27 душно 1007.6 1002.3
23 21.03 ЮВ 4 н/о н/о +29.2 +11.7 34 +30 +30 жарко 1009.9 1004.6
02 22.03 С 5 н/о н/о +39.0 +13.4 22 +39 +39 очень
жарко
1009.3 1004.0 +22.4
03 22.03 С 6 н/о н/о +40.2 +11.3 18 +39 +39 очень
жарко
1008.1 1002.8
05 22.03 В 4 н/о н/о +38.9 +12.6 21 +39 +39 очень
жарко
1006.2 1000.9
06 22.03 В 5 н/о н/о +39.6 +13.9 22 +40 +40 очень
душно
1005.5 1000.2
08 22.03 В 5 н/о н/о +37.8 +15.6 27 +39 +39 очень
душно
1005.9 1000.6
09 22.03 В 4 н/о н/о +35.4 +16.2 32 +38 +38 очень
душно
1006.1 1000.8
11 22.03 СВ 5 н/о н/о +32.1 +17.9 43 +36 +36 очень
душно
1007.6 1002.3
12 22.03 СВ 2 н/о н/о +31.2 +17.1 43 +35 +35 очень
душно
1008.1 1002.8
14 22.03 СВ 3 н/о н/о +29.2 +17.7 50 +34 +34 очень
душно
1008.0 1002.7 +41.2
15 22.03 СВ 4 н/о н/о +28.2 +18.0 54 +33 +33 очень
душно
1008.0 1002.7
17 22.03 СВ 4 н/о н/о +26.6 +18.5 61 +31 +31 душно 1007.5 1002.2
18 22.03 СВ 3 н/о н/о +26.2 +17.3 58 +30 +30 душно 1007.7 1002.4
20 22.03 С 5 н/о н/о +29.4 +15.1 42 +32 +32 душно 1008.7 1003.4
21 22.03 С 4 н/о н/о +28.4 +15.7 46 +31 +31 душно 1009.3 1004.0
23 22.03 С 8 н/о н/о +33.3 +18.3 41 +38 +38 очень
душно
1010.4 1005.1
00 23.03 С 9 н/о н/о +34.9 +17.6 36 +38 +38 очень
душно
1010.5 1005.2
02 23.03 СВ 8 н/о н/о +37.5 +15.9 28 +39 +39 очень
душно
1009.8 1004.5 +25.9
03 23.03 СВ 8 н/о н/о +39.6 +15.9 25 +41 +41 опасность
перегрева
1008.5 1003.2
05 23.03 СВ 9 н/о н/о +40.8 +11.8 18 +40 +40 очень
жарко
1006.7 1001.4
06 23.03 В 9 н/о н/о +39.4 +13.0 21 +39 +39 очень
жарко
1006.3 1001.0
08 23.03 В 7 н/о н/о +36.8 +14.7 27 +38 +38 очень
душно
1006.3 1001.0
09 23.03 В 5 н/о н/о +34.8 +15.2 31 +37 +37 очень
душно
1006.7 1001.4
11 23.03 СВ 3 н/о н/о +31.3 +14.0 35 +33 +33 жарко 1008.2 1002.9
12 23.03 СВ 2 н/о н/о +30.4 +13.7 36 +32 +32 жарко 1008.5 1003.2
14 23.03 СВ 2 н/о н/о +28.7 +15.2 44 +31 +31 жарко 1008.2 1002.9 +41.6
15 23.03 СВ 3 н/о н/о +28.0 +15.6 47 +31 +31 душно 1008.0 1002.7
17 23.03 СВ 3 н/о н/о +26.4 +18.0 60 +31 +31 душно 1007.2 1001.9
18 23.03 СВ 3 н/о н/о +26.3 +17.6 59 +31 +31 душно 1007.2 1001.9
20 23.03 СВ 3 н/о н/о +25.8 +17.7 61 +30 +30 душно 1008.4 1003.1
21 23.03 СВ 4 н/о н/о +25.7 +17.4 60 +30 +30 душно 1008.6 1003.3
23 23.03 С 7 н/о н/о +33.0 +19.8 46 +39 +39 очень
душно
1009.9 1004.6
00 24.03 С 10 н/о н/о +34.4 +19.6 42 +40 +40 очень
душно
1009.8 1004.5
02 24.03 С 6 н/о н/о +36.5 +19.4 37 +42 +42 опасность
перегрева
1008.7 1003.4 +25.8
03 24.03 С 7 н/о н/о +36.6 +19.1 36 +41 +41 опасность
перегрева
1007.6 1002.3
05 24.03 СВ 6 н/о н/о +37.4 +18.9 34 +42 +42 опасность
перегрева
1005.9 1000.6
06 24.03 С 5 н/о н/о +37.6 +17.1 30 +40 +40 очень
душно
1005.4 1000.1
08 24.03 СВ 10 н/о в посл. час дождь {туман} н/о +27.4 +23.6 80 +37 +37 очень
душно
1006.9 1001.6
09 24.03 В 5 н/о н/о +26.4 +23.7 85 +36 +36 очень
душно
1007.5 1002.2
11 24.03 В 5 н/о в посл. час дождь {туман} н/о +25.0 +24.5 97 +35 +35 очень
душно
1009.7 1004.4
12 24.03 ЮВ 7 н/о н/о +24.9 +24.9 100 +35 +35 очень
душно
1010.4 1005.1
14 24.03 ЮВ 5 н/о н/о +24.9 +24.2 96 +34 +34 очень
душно
1009.6 1004.3 +38.9
15 24.03 ЮВ 4 н/о н/о +25.0 +24.0 94 +34 +34 очень
душно
1009.2 1003.9
17 24.03 В 3 н/о {туман} н/о +25.0 +23.1 89 +33 +33 очень
душно
1008.1 1002.8
18 24.03 З 5 н/о н/о +24.1 +23.8 98 +33 +33 очень
душно
1010.0 1004.7
20 24.03 ЮЗ 2 н/о туман местами н/о +24.3 +24.3 100 +34 +34 очень
душно
1010.5 1005.2
21 24.03 Ю 5 н/о н/о +24.1 +24.1 100 +33 +33 очень
душно
1010.9 1005.6

 

Местоположение метеостанции Бердсвилл (Квинсленд, Австралия): широта -25.90 долгота 139.35 высота над уровнем моря 47 м.

В архиве по умолчанию представлена погода в Бердсвилле за последнюю неделю. Архивные данные за месяц целиком и за предыдущие месяцы, начиная с января 2011 года, Вы можете получить, выбрав интересующий диапазон дат из раскрывающегося списка и нажав кнопку "Ввод!".


*Определитесь, кто Вы:
робот инопланетянин человек

Внимание! Время в таблицах - всемирное. Для получения местного времени необходимо прибавить поправку, которая равна 10 ч.

Смотрите также архив погоды в соседних городах и на ближайших метеорологических станциях:

Погода в Мумбе (Южная Австралия, Австралия) (259 км)
Погода в Месторождении Ballera (Квинсленд, Австралия) (298 км)
Погода в Однадатте (Южная Австралия, Австралия) (429 км)
Погода в Марри (Южная Австралия, Австралия) (437 км)
Погода в Фосфат-Хилл (Квинсленд, Австралия) (460 км)
Погода в Джервойсе (Северная территория, Австралия) (461 км)
Погода в Тибообере (Новый Южный Уэльс, Австралия) (476 км)
Погода в Аэропорту Трепелл (Квинсленд, Австралия) (479 км)
Погода в Таргоминде (Квинсленд, Австралия) (499 км)
Погода в Ли-Крике (Южная Австралия, Австралия) (531 км)

Пояснения к столбцам:

Ветер - указаны скорость ветра в м/с - средняя за 10 мин, порывы в срок и между сроками (в фигурных скобках) и направление, откуда дует ветер: С - северный, СВ - северо-восточный, В - восточный, ЮВ - юго-восточный, Ю - южный, ЮЗ - юго-западный, З - западный, СЗ - северо-западный.
Видимость - горизонтальная дальность видимости в метрах или километрах. При видимости от 1 до 10 км при отсутствии осадков обычно наблюдается дымка, при ухудшении видимости до 1 км и менее - туман. В сухую погоду видимость может ухудшаться дымом, пылью или мглою.
Явления - указаны атмосферные явления, наблюдавшиеся в срок или в последний час перед сроком; фигурными скобками обозначены явления, наблюдавшиеся между сроками (за 1-3 часа до срока); квадратными скобками обозначены град или гололедные отложения с указанием их диаметра в мм.
Облачность - указаны через наклонную черту общая и нижняя облачность в баллах и высота нижней границы облаков в метрах; квадратными скобками обозначены формы облаков: Ci - перистые, Cs - перисто-слоистые, Cc - перисто-кучевые, Ac - высококучевые, As - высокослоистые, Sc - слоисто-кучевые, Ns - слоисто-дождевые, Cu - кучевые, Cb - кучево-дождевые. Подробнее классификацию облаков см. в Атласе облаков (PDF).
T - Температура воздуха - температура, измеренная на высоте 2 м над землей.
Td - Температура точки росы - температура, при понижении до которой содержащийся в воздухе водяной пар достигнет насыщения.
f - Относительная влажность воздуха - влажноcть воздуха, измеренная на высоте 2 м над землей.
Te - Эффективная температура - температура, которую ощущает одетый по сезону человек в тени. Характеристика душности погоды. При расчете учитывается влияние влажности воздуха и скорости ветра на теплоощущения человека.
Tes - Эффективная температура на солнце - температура, которую ощущает человек, с поправкой на солнечный нагрев. Характеристика знойности погоды. Зависит от высоты солнца над горизонтом, облачности и скорости ветра. Ночью, в пасмурную погоду, а также при ветре 12 м/с и более поправка равна нулю.
P - Атмосферное давление - приведенное к уровню моря атмосферное давление.
Po - Атмосферное давление - измеренное на уровне метеостанции атмосферное давление.
Tmin - Минимальная температура - минимум температуры воздуха на высоте 2 м над землей.
Tmax - Максимальная температура - максимум температуры воздуха на высоте 2 м над землей.
R - Количество осадков - Количество выпавших осадков за период времени, мм. При наведении курсора мыши на число - период времени, за который выпало указанное количество осадков.
R24 - Количество осадков - Количество выпавших осадков за 24 часа, мм.
S - Снежный покров - Высота снежного покрова, см. При наведении курсора мыши на число - состояние снежного покрова и степень покрытия местности в баллах.